Location: Street
(51.1247°N, 2.7429°W)
Time: 15:47:39
(UTC+00:00)

SR - Pass Details

Date: 29 November 2020
Orbit: 575 x 880 km, 66.7° (Epoch: 26 January)

Event Time Altitude Azimuth Distance (km) Brightness Sun altitude
Rises 01:33:13 0° 323° (NW) 3,098 - -55.2°
Reaches altitude 10° 01:35:41 10° 332° (NNW) 2,228 - -55.0°
Maximum altitude 01:40:22 35° 39° (NE) 1,234 - -54.5°
Drops below altitude 10° 01:45:24 10° 104° (ESE) 2,402 - -53.9°
Sets 01:48:08 0° 113° (ESE) 3,374 - -53.6°
